RH
16 17 17 18 19 19 19 19 17 16 16 16 18 20 20 21 22 24 27 30 32 35 42 50 58 65 71 78 82 83 85 87 89 89 89 91 91 90 91 91 92 91 94 99 101 100 101 99 97 95 94 92 87 83 82 79 76 74 71 71 69 68 69 70 74 74 70 67 66 63 61 62 64 63 65 68 66 61 55 46 37 31 26 23 20
17 17 17 18 19 19 20 21 20 20 19 18 18 19 21 24 26 29 33 33 31 31 35 41 49 57 65 72 77 79 83 85 87 89 92 94 93 93 95 96 95 96 100 104 104 104 105 102 98 96 95 94 90 88 87 85 83 82 78 78 80 78 78 79 77 76 75 71 69 69 67 68 72 72 71 69 62 53 44 35 28 24 22 21 20
18 18 18 18 19 19 20 21 21 22 22 22 22 20 21 22 25 31 37 41 41 40 40 43 47 53 59 65 70 74 79 83 85 88 93 94 93 94 96 97 98 100 103 105 103 103 104 102 99 98 98 98 97 96 96 94 92 92 90 88 89 87 82 80 77 75 76 75 72 71 71 71 74 73 67 60 50 40 33 27 24 23 22 21 21
18 18 19 19 19 19 20 21 22 23 23 24 25 25 24 24 23 25 30 38 46 50 53 56 59 62 66 69 71 74 79 82 83 86 91 93 93 94 96 97 99 101 103 103 102 101 102 102 101 101 100 101 102 100 100 99 95 94 94 90 88 86 81 78 78 76 75 75 72 69 71 72 69 61 52 43 35 30 27 26 25 24 23 21 21
18 19 19 19 20 20 21 22 22 23 24 24 25 26 27 28 27 26 26 28 33 39 46 52 58 66 74 79 82 86 90 92 92 93 96 98 99 100 101 101 102 103 103 104 103 102 102 103 102 100 99 99 99 97 96 95 93 92 90 88 85 83 82 80 79 76 73 72 69 65 62 58 50 42 35 32 30 29 28 27 26 24 23 21 20
15 17 18 19 21 21 22 23 23 24 25 26 27 27 28 28 29 30 30 30 30 31 33 38 44 53 62 70 77 85 95 100 101 102 103 102 102 103 102 102 103 103 103 102 101 100 101 101 99 97 96 95 93 93 93 91 90 89 87 86 84 82 80 76 71 66 61 58 54 49 43 39 35 33 32 31 31 30 28 26 24 23 21 19 18
13 15 16 18 20 21 22 23 25 26 27 27 28 28 28 29 29 30 31 33 34 34 34 34 35 37 41 46 53 62 75 87 94 99 102 104 103 103 103 102 103 101 102 103 102 101 101 100 99 96 94 94 93 92 91 89 86 83 80 78 73 68 63 56 50 46 44 41 39 37 35 34 34 33 31 30 28 27 25 23 22 21 19 18 17
13 14 15 16 18 20 22 23 24 26 28 29 29 28 28 29 30 31 32 33 34 35 36 37 37 36 36 37 38 41 47 56 66 74 81 86 90 94 97 98 99 97 97 99 98 96 94 92 90 88 85 82 80 76 73 70 66 62 58 53 48 44 41 39 38 37 38 38 37 36 35 33 31 29 27 26 24 23 21 20 20 20 19 19 17
14 14 15 16 17 18 21 22 24 25 27 29 30 31 31 32 33 33 34 35 35 36 37 38 39 40 40 40 39 39 39 39 42 45 49 53 57 62 66 68 70 69 69 69 68 65 63 62 60 58 55 52 50 47 44 42 41 39 38 36 36 36 37 37 38 38 37 36 34 32 30 28 26 25 24 23 22 21 20 19 20 20 20 21 19
15 15 16 17 17 18 19 21 23 25 27 29 31 32 34 35 36 37 37 38 38 39 39 40 41 41 42 43 43 43 43 41 41 40 40 40 40 41 42 42 43 43 42 42 42 40 40 39 38 37 36 35 35 35 34 35 35 36 37 38 38 38 38 37 35 34 32 30 28 27 26 25 24 23 23 23 22 21 20 20 21 21 21 21 20
16 16 17 18 18 19 19 20 21 23 25 27 29 32 33 35 36 38 39 40 40 41 42 42 43 43 44 44 45 45 45 45 44 44 43 42 42 41 40 40 39 39 39 39 38 38 37 37 37 37 37 37 37 37 38 38 39 39 39 38 37 35 33 31 29 27 26 25 25 25 25 25 24 23 23 23 23 22 22 21 22 21 20 20 19
16 16 17 17 18 19 19 20 21 22 23 25 27 30 32 34 35 37 39 41 42 43 45 45 45 46 46 46 46 47 47 47 46 46 45 44 44 43 42 42 42 42 42 41 41 41 41 40 40 40 40 40 40 40 40 39 38 37 36 34 32 30 28 27 26 26 25 25 26 25 25 25 24 23 23 24 24 24 23 22 21 20 18 17 15
15 16 16 17 17 18 19 20 21 23 23 24 26 28 30 32 34 36 37 39 41 43 45 46 47 47 48 49 49 49 48 48 48 48 48 47 46 45 44 44 44 43 43 43 43 43 42 42 42 41 41 41 40 39 38 37 35 34 32 31 29 28 28 28 29 28 28 28 27 26 25 25 25 25 25 26 26 25 23 21 19 17 15 13 12
16 16 16 17 17 18 19 20 21 22 23 24 26 27 29 31 32 34 35 36 38 40 42 44 46 47 49 50 50 50 49 50 50 50 50 50 49 48 48 47 47 46 46 46 46 45 45 44 43 42 41 40 38 37 35 34 32 31 30 30 30 30 31 32 31 31 30 29 29 28 26 26 28 28 27 26 25 23 20 18 16 15 14 13 12
19 19 18 18 19 19 19 20 20 21 22 23 25 26 28 30 31 32 34 35 36 38 39 41 42 44 46 47 48 50 50 50 51 51 52 52 51 51 50 50 49 49 48 47 47 46 44 43 41 40 39 37 35 34 33 32 32 32 33 33 33 34 35 35 34 33 31 31 31 31 31 31 30 29 26 24 22 19 17 15 14 15 14 14 14
21 22 21 21 21 21 21 21 21 22 23 23 24 25 27 29 31 33 34 35 36 37 38 40 41 41 42 43 44 46 47 47 48 49 50 50 50 50 49 49 48 47 46 45 44 42 41 40 39 38 37 37 36 36 35 35 36 37 38 38 38 39 39 37 35 34 33 34 34 34 33 31 29 26 22 20 18 17 17 17 17 16 17 16 15
21 22 22 22 22 22 22 23 24 25 26 27 27 28 28 29 31 33 35 37 39 40 40 41 41 42 42 42 43 43 44 45 44 44 45 45 45 45 44 44 44 43 42 41 41 41 40 40 40 40 40 40 40 41 41 41 42 43 43 42 41 41 40 38 37 37 37 37 35 33 30 27 24 21 19 18 19 20 20 21 19 18 17 16 15
22 23 23 23 24 24 25 26 28 28 29 30 31 32 32 33 33 34 35 38 40 42 43 43 44 44 44 44 44 44 45 45 44 44 44 44 44 44 43 43 43 42 42 41 42 43 43 44 44 45 46 47 48 49 49 49 49 48 46 43 41 40 41 40 40 38 36 33 30 27 25 23 21 21 21 22 22 22 22 21 19 17 16 15 14
24 24 25 25 26 27 28 30 32 33 34 36 36 37 38 38 39 39 39 40 40 42 44 45 45 46 47 47 46 46 45 45 45 45 45 45 46 45 45 45 45 45 45 46 46 47 48 50 51 53 54 56 57 57 55 52 51 50 48 46 44 42 41 39 37 34 31 28 25 23 22 22 24 25 25 25 23 21 20 18 17 15 14 13 12
25 26 26 27 28 30 31 32 34 36 39 42 43 44 44 44 44 44 44 44 44 43 44 45 46 46 47 48 48 48 48 47 47 46 46 47 48 49 49 49 49 50 50 50 51 52 53 54 56 58 59 60 60 60 58 55 54 53 51 48 45 41 37 34 32 30 27 25 23 23 24 25 26 26 24 23 21 19 17 16 14 13 12 11 9
26 27 28 29 30 31 33 34 36 37 40 43 46 48 49 49 49 49 48 48 49 49 50 50 50 51 51 51 52 53 53 53 52 51 51 51 52 53 54 54 54 55 55 55 55 56 56 57 57 58 60 60 62 62 61 58 54 51 48 45 42 39 36 33 30 28 27 27 26 25 26 25 25 23 21 19 17 15 14 13 11 10 9 8 8
29 29 30 31 31 32 34 36 39 41 42 43 46 49 52 55 57 57 57 56 56 56 57 57 57 57 57 57 58 58 59 60 60 60 59 59 59 61 62 62 62 63 63 62 61 60 59 58 57 57 58 58 59 59 57 54 51 48 46 44 43 41 38 35 32 30 30 30 29 27 26 24 22 20 18 16 14 13 11 10 9 8 8 7 7
32 32 32 33 35 36 39 41 43 46 47 49 51 54 57 60 63 65 66 66 66 66 65 64 64 64 63 62 62 62 62 63 64 65 65 65 64 66 67 67 66 66 66 64 62 61 60 60 59 58 56 55 54 54 54 54 53 51 49 46 44 42 40 39 38 37 36 34 31 28 25 23 21 19 17 15 12 11 10 9 8 8 7 7 6
36 36 36 37 39 42 44 46 49 51 54 57 61 63 65 66 68 70 72 74 74 74 74 74 74 73 73 72 71 70 70 69 69 70 69 68 67 66 67 67 67 66 66 66 65 64 64 63 62 60 59 57 56 55 55 55 54 52 49 46 44 43 43 44 44 42 39 34 30 28 25 22 20 18 15 13 11 10 9 8 7 7 7 6 6
40 40 40 41 43 46 49 53 57 61 65 69 73 75 77 77 77 76 77 78 78 79 79 80 81 81 81 81 81 80 79 78 77 76 75 73 70 68 66 67 67 67 68 69 69 68 67 66 65 63 61 59 57 55 53 52 50 49 49 49 48 47 46 45 42 38 35 31 28 26 23 20 17 15 13 12 10 9 8 7 7 7 7 6 6
42 44 46 48 50 53 56 60 64 69 72 75 78 80 82 83 83 83 82 82 82 82 82 82 82 82 83 83 82 82 81 80 78 77 75 74 72 69 67 66 65 65 66 66 66 65 64 63 62 60 58 55 52 50 49 49 50 52 53 53 50 46 41 38 35 33 31 28 25 22 19 17 15 13 12 10 9 8 7 7 7 7 7 6 6
45 48 52 55 57 60 63 65 68 71 75 77 79 81 82 84 86 87 86 85 85 84 84 84 83 83 83 82 82 81 80 79 78 77 76 74 72 70 68 65 63 62 61 60 59 58 57 55 54 53 51 49 48 49 50 52 53 53 51 47 42 38 35 33 32 30 27 24 21 19 16 15 13 11 10 9 8 7 7 7 7 7 6 6 6
44 49 54 59 62 65 67 69 71 74 77 80 83 85 86 87 88 88 88 88 88 88 87 86 85 85 83 82 81 79 78 77 76 74 73 72 70 68 66 64 62 60 59 58 57 56 55 52 50 49 49 50 51 53 54 52 49 46 42 39 36 35 33 31 29 26 22 20 18 16 14 12 11 9 9 8 7 7 7 7 7 7 6 6 6
45 50 55 61 65 69 72 75 77 78 80 83 85 88 89 90 90 90 90 90 90 89 87 86 85 83 82 80 78 76 75 75 74 72 72 70 69 68 67 66 65 63 62 60 59 58 57 55 53 54 55 55 55 53 50 46 43 41 40 38 36 34 31 27 24 22 19 17 16 14 12 10 10 9 8 8 7 7 7 7 6 6 6 6 6
50 54 59 64 69 73 77 80 82 83 84 85 87 88 89 90 92 93 93 92 90 88 86 85 83 82 81 79 77 76 76 76 76 75 75 74 73 72 72 71 69 67 64 61 59 59 59 60 60 61 60 57 54 50 47 45 44 43 41 38 35 31 27 24 21 19 17 15 13 12 11 10 10 9 8 8 7 7 6 6 6 6 6 6 6
55 61 66 70 74 77 81 84 87 89 90 91 91 91 91 92 94 96 96 95 94 92 91 89 87 85 84 83 81 80 80 80 80 79 78 77 76 75 73 71 68 65 62 60 61 62 64 65 64 62 58 54 51 49 48 47 45 42 38 33 29 25 22 20 18 16 14 12 11 11 10 10 9 8 8 8 7 7 7 6 6 6 6 6 6
62 68 72 75 78 81 85 88 92 94 95 95 95 95 96 97 100 102 103 103 103 101 99 96 93 91 89 86 84 83 82 81 80 79 76 74 71 68 66 64 63 63 64 65 65 66 65 63 60 56 53 50 48 47 45 42 39 35 31 27 24 20 17 15 13 12 11 11 11 10 10 9 8 8 8 8 8 7 7 7 6 7 7 6 6
70 74 76 79 81 84 87 89 91 93 95 97 99 100 101 104 107 108 107 106 104 102 98 95 92 88 85 83 80 79 77 76 75 72 69 66 64 64 65 67 70 72 72 71 67 62 59 56 53 51 49 46 44 41 38 35 31 28 25 22 19 16 13 12 11 11 11 10 10 9 9 8 8 8 8 8 8 8 7 7 7 7 6 6 6
72 74 77 80 83 86 89 90 92 94 96 98 100 101 102 103 103 101 99 96 93 90 87 85 83 81 79 78 78 78 78 77 75 72 70 69 69 71 73 75 77 76 72 67 62 57 53 51 49 46 44 41 38 35 32 29 26 23 20 17 14 12 11 11 10 10 10 10 9 9 8 8 8 8 8 8 8 8 8 7 7 6 6 6 5
68 72 76 81 84 87 88 89 90 91 91 92 93 94 94 93 91 90 88 87 86 86 86 86 85 85 85 84 85 84 83 82 80 78 78 79 79 80 79 77 74 70 66 62 59 55 51 48 45 42 39 36 33 30 26 23 20 17 15 13 12 12 11 11 10 10 10 10 9 9 8 8 8 8 9 9 8 8 8 7 6 6 6 6 6
70 75 79 81 83 84 86 87 88 89 89 89 89 89 90 90 90 91 92 93 94 95 96 95 94 92 90 87 85 84 84 83 83 83 84 84 83 80 77 73 69 66 64 62 59 54 49 45 42 38 34 31 27 24 21 18 16 14 13 13 12 12 11 11 11 11 11 10 9 8 8 8 9 9 9 9 9 8 7 6 6 6 6 6 7
75 79 80 81 82 85 88 91 92 94 94 94 95 95 95 95 96 97 98 98 97 96 95 94 92 88 85 82 82 83 84 85 86 86 85 83 80 77 75 73 69 66 62 59 56 52 46 42 38 34 30 27 23 20 17 16 14 14 13 13 13 12 12 12 11 11 10 10 9 9 9 9 9 9 9 9 8 7 6 6 6 7 7 7 7
76 78 79 80 83 86 90 92 94 95 96 97 97 95 94 94 95 95 94 92 90 90 89 89 87 85 83 84 85 87 87 87 86 84 81 79 78 77 75 72 67 62 58 54 51 47 42 37 33 30 25 22 20 17 16 15 14 14 14 13 13 12 11 11 11 10 10 9 9 9 9 9 9 9 8 8 7 6 6 7 7 7 7 7 6
75 76 77 78 79 82 84 87 89 91 91 92 91 90 90 91 90 89 88 88 89 90 89 89 88 88 88 88 87 86 84 83 81 80 78 78 78 77 73 68 63 59 56 52 47 42 37 31 27 23 19 17 16 15 15 14 14 13 13 13 12 11 11 10 10 10 9 9 9 9 10 9 9 8 7 7 7 7 7 7 7 7 7 7 7
76 77 77 78 80 83 84 86 88 89 88 88 90 91 92 90 88 88 91 93 93 91 90 91 91 90 89 87 84 81 80 80 79 79 78 77 75 72 68 64 60 56 52 47 40 34 28 23 19 17 16 15 14 14 14 14 14 13 13 12 11 11 10 10 10 10 10 10 10 10 9 9 8 7 7 7 8 8 7 7 7 7 7 8 7
76 79 82 84 87 88 87 86 87 86 87 90 92 92 91 89 89 93 95 93 90 89 90 92 92 89 87 83 80 77 78 78 77 75 72 70 68 65 62 58 53 48 43 37 31 25 21 18 16 15 15 15 15 14 14 14 13 13 12 11 11 11 11 10 10 10 10 10 10 9 9 8 7 8 8 8 8 7 7 7 8 8 8 8 8
80 83 86 87 86 84 84 84 86 87 89 90 90 89 90 91 92 93 91 89 88 90 92 92 91 87 85 83 80 78 77 75 71 68 65 63 61 59 56 51 45 39 33 28 23 20 18 17 16 16 15 15 15 14 14 14 13 12 12 12 11 11 11 11 11 11 10 10 9 8 8 8 8 8 8 8 7 7 8 8 8 8 9 8 8
84 82 81 80 80 81 84 87 88 88 88 88 89 91 93 93 91 90 89 90 91 92 92 92 90 89 88 86 83 79 74 69 65 62 60 58 55 50 45 39 33 28 24 21 19 19 18 18 17 16 15 15 15 14 13 13 12 11 12 12 11 11 11 11 11 10 9 9 9 9 9 8 8 8 8 8 8 8 8 9 8 9 9 8 8
77 76 77 80 83 86 88 88 87 86 87 90 92 94 93 91 91 92 94 95 95 95 95 95 94 93 90 85 79 73 68 64 60 57 53 49 45 40 34 28 24 21 20 19 19 19 19 18 17 16 15 14 14 13 13 12 12 12 13 13 12 11 11 11 10 9 10 10 9 9 8 8 8 8 8 8 9 9 9 9 9 9 9 9 9
78 82 85 86 86 86 86 87 88 90 92 94 94 94 93 95 97 99 101 100 99 97 96 95 92 89 84 78 72 67 64 59 54 50 45 40 35 30 25 21 20 19 19 19 19 19 18 17 16 15 14 13 12 12 12 12 12 13 14 14 13 12 11 10 10 10 10 10 9 8 8 8 8 9 9 9 9 9 9 9 9 9 9 9 10
85 86 86 85 85 86 89 92 94 95 96 96 95 96 99 101 102 102 99 96 93 91 89 87 84 81 77 73 69 64 59 54 48 43 37 32 27 23 21 19 19 19 18 18 18 18 17 17 16 14 13 13 12 12 12 12 13 14 14 14 13 11 10 11 11 11 10 9 9 9 9 9 9 9 9 9 9 9 9 9 9 10 10 11 10
79 80 81 83 86 89 92 93 95 95 95 96 97 99 101 100 98 94 90 88 86 84 83 80 78 76 73 70 66 60 53 46 39 33 29 25 22 21 20 19 19 18 17 17 17 17 16 16 15 14 13 13 12 12 13 13 14 13 13 12 12 12 11 11 11 10 9 9 9 9 9 9 10 9 9 9 9 10 10 11 11 11 11 11 11
77 79 82 84 86 87 88 89 90 92 94 95 96 96 94 91 87 85 84 82 81 80 79 77 74 70 66 61 57 50 42 35 29 25 24 23 22 21 20 19 18 17 17 17 17 16 15 15 14 14 14 14 14 14 14 14 12 12 13 13 13 12 11 11 10 10 9 9 10 10 10 10 9 9 9 10 11 11 11 11 11 12 12 12 12
79 80 81 81 82 83 84 85 86 88 89 89 88 85 83 81 80 79 80 79 77 76 73 70 65 59 53 47 42 35 30 26 24 24 23 23 22 20 19 18 17 17 17 17 16 15 15 15 15 16 16 16 15 14 13 12 11 13 14 14 12 11 11 10 10 9 9 10 10 10 10 10 10 10 11 12 12 12 12 12 12 12 13 13 13
76 76 76 76 76 77 78 79 80 81 80 79 78 77 76 76 76 76 75 73 70 67 62 56 49 44 38 33 29 26 24 24 24 23 22 21 20 19 18 18 17 17 17 16 15 15 15 16 18 18 17 16 15 14 12 12 13 14 13 12 11 10 11 10 10 10 10 10 10 11 11 11 11 12 12 13 13 13 13 13 13 13 14 14 14
70 69 70 70 71 73 74 74 75 75 73 72 71 71 71 71 71 69 66 62 57 51 45 39 34 31 28 26 25 25 24 23 22 21 20 20 19 18 18 18 17 17 16 16 15 16 18 19 19 18 16 14 14 13 13 13 13 13 11 10 10 10 10 10 10 10 10 10 11 12 12 12 13 13 13 13 13 13 14 14 14 14 15 15 14
Wind_Speed
90 91 93 94 96 98 100 102 104 108 112 116 120 124 127 129 130 132 134 137 138 139 140 142 143 144 145 146 147 148 148 149 149 150 150 150 151 151 151 152 152 152 152 152 152 153 154 154 155 155 155 156 156 156 157 157 158 158 158 159 159 159 160 160 161 163 163 163 164 165 165 166 167 168 169 171 172 172 172 170 168 165 162 160 157
92 93 94 95 96 97 99 101 103 104 106 109 113 117 122 125 128 131 133 135 136 137 137 139 141 143 144 145 146 147 148 148 149 149 150 150 151 151 152 152 152 152 152 152 153 154 154 154 155 155 155 156 156 157 158 158 159 160 160 161 162 162 163 164 164 165 166 166 167 168 168 169 170 172 173 174 174 172 170 167 163 160 158 156 154
93 94 95 96 97 97 98 100 102 104 105 106 108 110 114 118 123 128 131 134 136 137 137 139 140 142 143 144 145 146 147 148 148 149 149 150 151 151 152 152 152 152 152 153 153 154 154 154 155 156 156 157 157 158 160 161 162 163 163 164 165 166 167 167 168 168 169 169 169 170 171 171 172 174 174 174 171 168 165 162 159 156 155 154 153
94 96 96 97 98 98 99 100 101 103 104 106 107 108 110 112 115 120 125 130 134 137 139 140 142 143 144 145 146 146 147 148 149 149 150 150 151 151 152 152 153 153 153 154 154 155 155 156 157 158 159 159 160 162 163 164 165 166 167 167 168 169 169 170 170 171 171 172 171 171 172 173 173 173 171 168 164 161 159 157 156 155 154 153 151
94 96 97 98 99 100 101 101 102 103 104 106 107 108 110 111 112 114 117 121 127 132 136 139 141 143 145 147 148 148 149 150 150 151 151 152 152 153 154 155 155 156 156 157 158 158 159 160 161 162 162 163 164 165 166 167 168 168 169 170 170 171 172 172 173 173 173 173 173 171 171 170 168 165 162 159 157 156 155 154 153 153 152 152 150
93 96 98 99 100 101 102 102 103 104 104 106 107 108 110 111 112 112 113 115 118 123 128 132 136 139 143 145 147 149 151 152 153 154 155 155 156 156 157 158 159 159 160 161 161 162 163 164 164 165 166 166 167 168 168 169 170 170 171 171 172 172 173 173 173 172 171 170 168 165 163 160 158 155 154 153 153 152 151 151 151 151 151 150 149
91 94 97 99 100 101 102 103 104 105 106 106 107 108 109 110 111 112 113 114 115 117 120 123 127 131 135 138 141 144 148 151 154 156 157 159 160 161 161 162 163 164 164 165 165 166 167 167 168 168 168 169 169 170 171 171 171 171 171 171 171 170 170 168 166 165 162 160 158 156 154 152 151 150 150 150 149 149 148 147 147 148 148 147 146
89 92 95 98 99 101 102 103 105 105 106 107 108 109 109 109 110 111 112 113 114 116 117 118 120 123 126 129 132 136 139 144 148 151 154 157 159 161 162 163 164 165 166 166 167 167 168 168 168 168 168 169 168 168 168 168 167 167 165 164 163 161 159 157 155 154 152 151 149 149 148 147 147 146 146 146 146 145 145 144 143 143 143 143 143
88 90 93 95 98 99 101 102 104 105 106 107 108 109 109 109 110 111 112 113 114 116 117 118 119 120 121 123 125 127 130 133 137 140 144 147 150 152 154 156 158 159 159 160 160 161 161 161 161 161 161 161 160 159 158 157 156 155 154 152 151 150 148 147 147 146 145 145 144 144 144 144 143 143 143 143 142 142 142 141 139 139 138 138 139
87 89 90 93 95 97 99 101 102 103 104 106 107 108 109 110 111 112 113 114 114 116 117 118 119 119 120 121 122 124 125 126 128 130 132 135 137 140 142 144 145 146 147 148 149 149 150 150 150 150 149 149 148 148 147 146 145 144 144 143 143 143 142 142 141 141 141 141 140 140 140 140 140 139 139 139 139 139 138 137 136 135 135 134 135
85 87 89 91 93 95 97 99 100 102 103 104 105 107 108 110 111 112 113 114 115 116 117 118 119 119 120 121 122 123 124 125 126 127 128 129 130 131 133 134 135 136 137 138 139 140 141 141 141 141 141 141 141 140 140 139 139 139 139 139 139 138 138 138 138 138 138 137 137 137 137 137 137 137 136 136 136 135 135 133 133 132 132 132 132
84 85 87 89 91 93 95 97 99 100 101 102 103 105 107 108 110 111 112 114 115 116 117 118 119 120 120 121 122 123 124 125 126 126 127 128 129 129 130 131 131 132 133 134 135 135 136 136 137 137 137 137 137 137 136 136 136 136 135 136 136 135 135 135 134 135 135 135 134 134 134 134 134 134 133 133 132 133 132 131 131 130 130 130 130
81 84 86 87 89 91 93 96 97 98 100 101 102 104 105 106 108 109 110 112 114 115 117 118 119 119 120 121 122 123 124 125 125 126 126 127 128 129 129 129 130 131 131 132 133 133 133 134 134 134 134 134 135 134 134 134 133 133 133 133 133 132 132 132 131 132 132 132 132 132 132 132 131 131 131 130 130 131 130 130 129 129 129 129 128
77 80 82 85 87 90 92 94 96 98 99 100 101 102 104 105 106 107 108 110 111 113 115 116 118 119 120 121 122 123 123 124 124 124 125 126 127 128 128 128 129 129 129 130 131 131 131 132 132 132 132 132 132 132 132 131 130 130 130 130 130 129 129 129 129 129 130 130 130 130 130 130 129 129 129 129 129 129 129 128 128 127 127 126 125
72 75 78 80 83 87 89 92 95 97 98 100 101 101 102 104 105 106 107 108 109 110 112 113 115 116 118 119 120 121 122 122 123 123 124 125 126 126 126 127 127 127 128 128 129 129 129 129 129 129 129 130 130 129 129 129 128 127 127 127 127 127 126 127 127 127 127 127 128 128 128 128 128 128 128 127 127 127 127 126 125 124 124 123 123
69 71 73 76 79 82 85 88 91 93 96 98 99 100 101 102 103 104 105 106 107 108 109 110 112 113 114 115 116 118 119 120 120 120 121 122 123 124 124 124 125 125 126 126 126 126 127 127 127 126 126 126 126 126 126 126 125 124 124 125 124 124 124 125 125 125 125 126 126 126 126 127 127 127 127 126 125 125 125 124 123 123 122 122 122
67 69 71 73 75 77 79 82 85 89 92 95 97 98 100 101 101 102 102 103 104 105 106 107 108 109 110 111 112 113 115 116 117 117 117 118 120 121 121 122 122 123 123 123 123 123 123 123 123 123 123 123 123 123 123 123 122 122 122 123 123 123 123 123 123 124 124 124 124 124 125 125 125 125 125 124 123 123 123 122 122 122 121 121 120
66 67 69 70 71 72 74 77 81 84 87 90 93 95 97 98 99 100 101 101 102 103 104 105 106 107 107 108 109 110 111 113 113 114 114 115 116 118 118 119 119 119 120 120 120 120 120 120 120 120 120 120 120 120 121 120 120 120 121 122 122 121 121 121 122 122 123 123 123 123 123 123 123 123 123 123 122 122 121 121 120 119 118 118 116
64 65 67 67 68 69 71 73 76 79 82 85 88 91 93 95 96 97 99 100 100 101 102 103 104 105 105 106 107 108 109 110 111 112 112 112 113 114 115 116 116 116 117 117 117 117 116 116 116 116 116 116 117 118 118 119 118 119 120 121 121 121 120 120 121 121 122 122 122 122 122 122 122 122 122 121 121 120 119 118 117 116 115 113 112
63 64 65 65 66 67 69 71 73 76 79 82 84 87 89 91 93 94 96 97 98 99 100 101 102 103 104 105 105 106 107 108 109 110 110 110 110 111 112 113 113 113 113 113 113 113 113 113 113 113 113 114 114 116 117 117 117 117 118 119 120 120 120 120 120 121 122 122 121 121 121 120 120 120 120 119 118 117 116 115 113 111 110 110 110
62 63 64 65 65 66 67 69 70 73 76 78 81 83 85 87 89 91 92 93 94 95 97 98 99 100 101 102 102 103 104 105 106 107 107 107 107 108 109 109 110 110 110 110 110 110 110 110 110 110 111 112 112 113 115 115 116 116 116 117 119 120 120 120 121 121 121 121 121 120 120 119 119 119 118 117 116 114 112 110 109 108 108 108 107
61 62 63 65 65 65 66 67 68 70 72 74 76 79 81 83 85 86 88 89 90 91 92 94 95 96 97 98 99 100 101 101 102 103 104 104 104 104 105 106 106 107 107 107 107 108 108 108 108 109 109 109 110 111 112 114 114 115 116 117 118 119 120 120 120 120 120 120 120 119 119 118 118 118 116 115 113 110 109 108 107 107 106 105 105
61 62 63 63 64 64 64 65 66 67 69 70 72 74 76 78 80 81 83 84 86 87 89 90 91 92 93 94 95 96 97 98 99 99 100 101 100 100 100 101 102 103 103 104 104 104 105 106 106 107 108 109 109 110 111 113 114 115 115 116 117 118 118 118 119 119 119 119 119 119 118 118 117 116 114 113 111 109 108 107 106 105 104 103 102
61 62 62 62 63 63 64 64 64 65 66 67 68 70 72 74 75 77 79 81 82 84 85 86 87 89 90 91 92 93 93 94 95 95 96 97 97 97 97 97 98 99 100 101 102 102 103 105 106 107 108 109 110 110 111 112 113 113 114 114 114 115 115 116 116 116 117 117 117 117 116 115 114 113 112 111 109 108 107 106 105 103 102 101 99
61 61 61 62 62 62 63 63 63 63 64 65 66 67 69 70 72 74 75 77 78 80 81 82 84 85 85 86 87 88 89 90 90 91 92 93 94 94 94 95 96 97 98 99 100 101 103 104 105 107 108 108 109 109 110 111 111 111 111 111 112 112 112 113 114 114 114 114 114 113 112 111 111 110 109 109 108 106 105 104 103 101 99 98 97
60 60 61 61 61 61 62 62 62 63 63 64 64 65 67 68 69 70 71 73 74 75 76 78 79 80 81 82 83 84 85 86 87 88 89 91 92 93 93 94 95 96 97 98 99 100 102 103 104 105 106 107 107 107 108 108 108 108 109 109 109 110 110 111 111 111 111 111 110 110 109 108 108 107 107 106 105 103 102 100 100 98 97 95 95
59 60 60 61 61 61 62 62 62 63 63 63 64 64 65 66 67 68 69 70 71 72 73 74 75 76 78 79 80 82 83 84 85 87 88 89 90 92 93 94 95 96 97 98 98 99 100 101 102 103 103 104 104 104 105 105 106 106 106 107 107 107 108 108 108 108 108 108 107 107 106 106 105 105 104 103 102 100 98 97 97 96 95 93 92
59 59 60 61 61 61 62 62 62 63 63 63 64 64 65 65 66 67 68 68 70 71 72 73 74 75 77 78 80 81 82 83 85 86 87 89 90 91 92 93 94 95 95 96 97 98 98 99 99 100 101 101 101 102 102 103 103 104 104 105 105 105 105 105 106 106 106 105 105 104 104 103 102 102 101 100 99 97 95 94 94 93 91 90 89
58 59 60 61 61 61 61 62 62 63 63 64 64 65 65 66 66 67 68 69 70 71 72 73 74 76 77 78 80 81 82 83 84 85 86 88 89 90 91 91 92 93 93 94 95 95 96 97 97 97 98 98 99 100 100 101 102 102 103 103 103 103 103 103 104 104 103 103 102 102 101 100 100 99 98 97 96 94 92 91 91 90 88 87 86
58 59 59 60 61 61 62 62 63 63 64 64 65 66 66 67 67 68 69 70 71 71 73 74 75 76 78 79 80 81 81 82 83 84 85 86 87 88 89 89 90 91 91 92 93 93 94 94 94 95 96 97 98 98 99 100 101 101 102 102 102 102 102 101 101 101 101 100 100 99 98 98 97 96 95 94 93 92 90 89 88 87 85 84 83
58 58 59 60 61 62 62 63 64 64 65 65 66 67 67 68 69 69 70 71 72 73 74 75 76 77 78 79 80 80 81 81 82 83 84 85 86 87 87 87 88 88 89 90 90 91 92 93 93 93 95 96 97 98 98 99 100 100 101 101 101 100 99 98 98 98 97 97 96 95 94 93 93 92 92 91 91 90 88 87 85 84 83 82 81
58 59 60 61 62 62 63 64 65 65 66 67 67 68 69 69 70 71 72 72 73 74 75 76 77 77 78 79 79 80 80 81 81 82 83 83 84 84 85 85 85 86 87 88 89 90 91 92 93 93 94 95 96 96 96 97 97 98 99 99 98 98 96 95 94 93 93 92 92 91 90 89 89 89 89 88 88 87 86 84 83 82 81 80 79
59 60 61 62 62 63 64 65 66 67 67 68 69 69 70 71 71 72 73 74 74 75 76 76 77 77 77 78 78 78 78 79 79 80 81 81 82 82 83 83 84 85 86 87 88 89 90 91 92 93 93 94 94 94 94 95 95 96 96 96 96 95 93 92 90 89 89 89 88 87 86 86 86 86 86 86 85 84 83 82 81 80 79 78 77
60 61 62 62 63 64 65 66 67 68 68 69 70 70 71 72 72 73 73 74 74 74 75 75 75 75 76 76 76 76 76 77 78 79 80 81 81 82 83 83 84 85 86 87 88 89 90 91 91 92 92 92 92 93 93 93 93 93 93 93 93 92 90 89 88 87 86 86 85 84 84 83 83 83 83 83 82 81 80 80 79 78 77 76 75
61 61 62 63 63 64 65 66 67 68 68 69 70 70 71 71 71 72 72 72 72 73 73 73 74 74 74 75 75 75 76 77 78 79 80 81 82 82 83 83 84 85 86 87 88 89 89 90 90 90 91 91 91 91 91 91 90 90 90 90 90 89 88 87 86 85 85 84 83 82 81 81 80 80 81 81 80 79 78 78 77 75 74 73 72
60 60 61 62 63 64 65 65 66 67 67 68 69 69 70 70 70 71 71 71 72 72 72 73 73 74 74 74 75 75 76 76 77 79 80 81 81 82 83 84 84 85 86 86 88 89 89 89 89 89 90 90 89 89 89 88 88 88 88 88 87 87 86 85 84 83 83 83 82 80 79 78 78 77 78 78 77 77 76 74 73 72 71 69 68
59 60 61 62 63 64 64 65 66 66 67 67 67 68 68 69 69 70 70 71 71 71 72 72 73 73 74 74 74 74 75 76 77 79 79 80 81 82 83 84 84 85 85 86 87 88 88 88 88 88 88 88 88 87 87 87 87 87 86 86 85 84 83 82 81 81 80 80 79 77 76 75 75 74 75 75 74 73 72 70 69 69 68 66 64
59 60 61 61 62 63 63 64 64 65 65 66 66 67 67 67 68 68 69 69 70 70 70 71 72 73 73 73 74 74 75 76 77 78 79 80 81 82 83 84 85 85 85 85 86 87 87 86 86 86 86 86 86 86 86 85 84 84 83 83 82 81 80 78 78 77 77 76 75 74 73 72 72 72 72 72 71 69 67 66 66 66 65 63 61
58 59 60 60 61 61 62 62 63 63 64 64 65 65 65 66 66 67 68 68 68 69 70 71 72 72 73 73 74 75 75 76 77 78 79 80 81 82 83 84 85 85 85 85 85 86 86 85 85 84 84 83 83 83 83 82 81 80 80 80 80 78 77 75 74 74 73 72 71 71 70 70 70 69 69 68 66 65 64 63 62 62 61 60 58
58 59 59 59 59 60 60 61 62 62 63 63 63 63 64 65 66 66 66 67 68 70 70 71 72 73 73 74 75 75 75 76 77 78 79 80 81 82 83 84 84 84 84 84 84 84 84 83 83 82 81 81 81 80 80 79 78 78 77 77 77 75 74 72 72 71 70 70 69 68 67 67 67 66 65 64 62 61 60 60 59 58 57 56 55
58 58 58 58 59 60 60 61 62 62 62 62 63 64 65 65 65 66 67 68 69 69 70 71 72 73 74 75 75 75 76 76 77 78 79 80 81 82 82 82 83 83 83 83 83 82 82 82 81 80 79 79 78 78 78 77 76 76 75 74 73 72 71 70 69 68 68 67 66 65 64 64 63 62 61 60 58 57 57 56 56 55 53 52 51
57 57 58 59 60 60 60 61 61 62 62 63 64 64 65 65 66 67 68 68 69 69 71 72 73 74 75 75 76 76 77 77 78 78 79 79 80 80 81 81 81 81 81 81 81 81 81 80 79 78 77 76 76 76 75 75 74 74 72 71 70 69 67 67 67 66 65 64 63 62 61 60 59 59 58 56 55 53 53 53 52 51 50 48 47
57 58 59 59 60 60 60 60 61 62 63 63 64 64 65 66 66 67 68 68 69 70 71 72 74 74 75 76 77 77 77 77 78 78 78 79 79 79 80 80 80 80 79 79 79 79 79 78 77 76 74 74 73 73 72 72 72 71 69 68 68 66 65 65 64 63 62 61 59 58 57 56 55 55 54 53 51 50 49 49 48 47 45 45 43
58 58 59 59 59 59 60 61 61 62 62 63 64 65 65 66 67 67 68 69 70 71 72 73 74 75 76 76 77 77 77 77 77 77 78 78 78 79 79 78 78 78 78 77 77 77 76 76 75 73 72 71 70 70 69 70 69 67 66 66 65 64 62 62 61 60 58 57 56 54 52 52 52 52 51 49 48 47 46 45 44 42 41 41 40
58 58 59 59 60 60 61 61 62 62 63 64 64 65 66 66 67 68 69 70 71 71 72 73 74 75 76 76 76 76 77 77 77 77 77 77 78 78 77 77 76 76 75 74 73 73 73 72 72 71 69 68 67 67 67 66 66 64 63 63 63 62 60 59 57 56 55 54 52 50 48 48 48 48 47 45 44 43 42 41 40 39 38 37 37
58 59 59 60 60 61 61 62 62 63 64 64 65 66 67 67 68 69 70 70 71 72 72 73 73 74 75 75 76 76 76 76 76 76 77 77 77 77 76 76 75 73 72 71 70 70 70 70 69 68 67 65 64 64 63 62 62 61 61 60 60 59 57 56 54 53 52 50 48 47 46 45 45 44 43 42 41 40 39 38 37 35 35 34 34
58 59 60 60 61 61 62 62 63 64 64 65 66 67 67 68 69 70 70 70 71 71 72 72 73 73 74 74 75 75 76 76 76 76 76 76 76 75 74 73 72 71 69 68 68 68 67 67 66 65 64 63 62 61 59 59 59 59 58 57 57 56 54 52 51 49 47 46 45 44 43 42 41 40 39 38 38 37 36 35 33 32 32 32 31
58 59 60 60 61 62 62 63 64 64 65 66 66 67 68 69 69 69 70 70 71 71 72 72 73 73 73 74 74 75 75 75 75 75 75 74 74 73 72 71 70 68 67 66 66 65 65 64 63 62 61 61 60 58 57 57 56 55 54 54 54 52 50 48 46 45 44 43 42 41 40 38 37 36 35 35 35 34 33 32 31 30 30 29 29
59 59 60 61 62 62 63 64 64 65 65 66 67 68 68 69 69 69 70 70 71 71 71 72 72 73 73 73 74 74 74 74 73 73 72 72 71 70 69 68 67 66 65 64 63 62 61 60 59 59 59 58 57 56 56 54 53 51 52 52 50 48 46 44 43 42 41 40 38 37 36 35 34 33 32 32 31 30 29 29 28 28 27 27 26
59 60 61 61 62 63 64 64 64 65 66 66 67 67 68 68 68 69 69 70 70 71 71 72 72 72 72 73 73 72 72 71 70 70 69 68 68 67 66 65 64 63 62 61 60 59 58 57 56 57 56 56 55 54 53 51 50 49 49 48 45 43 42 41 40 39 37 36 34 33 33 32 31 30 30 29 28 27 26 26 25 25 25 24 23
60 60 61 62 62 63 63 64 64 65 65 66 66 66 67 67 68 68 69 70 70 70 71 71 71 71 72 71 71 70 69 68 67 66 66 65 65 64 63 62 61 60 59 58 57 55 54 54 54 54 54 53 52 51 50 48 47 46 45 43 41 40 39 37 36 35 33 32 30 30 30 29 28 27 26 25 25 24 24 23 23 22 21 20 19
Wind_Direction
253 252 251 251 250 250 250 250 250 249 249 248 249 250 251 252 252 253 253 254 255 255 256 257 257 258 258 259 259 260 261 262 262 263 264 265 265 266 267 268 269 269 270 271 272 273 273 274 275 275 276 277 277 278 279 279 280 281 282 282 283 284 284 285 285 286 286 287 287 288 288 289 289 290 290 290 291 291 291 291 291 290 290 290 290
252 252 251 250 250 249 250 250 250 251 250 250 249 249 250 251 252 252 253 254 255 255 256 256 257 258 258 259 259 260 261 262 262 263 264 265 265 266 267 268 269 270 270 271 272 272 273 274 274 275 276 276 277 278 278 279 280 281 281 282 283 283 284 284 285 285 286 286 287 287 288 288 289 289 290 290 290 290 290 290 290 290 290 290 290
252 251 251 250 249 249 249 249 249 250 250 251 251 250 250 250 250 251 252 253 254 255 256 256 257 257 258 259 259 260 261 261 262 263 264 264 265 266 267 268 269 269 270 270 271 272 272 273 273 274 275 275 276 277 278 278 279 280 281 281 282 283 283 284 284 285 285 286 287 287 287 288 288 289 289 289 289 289 289 289 289 289 289 289 289
251 251 250 250 250 249 248 248 248 249 249 250 250 251 251 250 250 250 251 251 252 253 254 255 256 257 258 258 259 260 260 261 262 263 263 264 265 266 267 267 268 268 269 269 270 270 271 272 272 273 274 274 275 276 276 277 278 279 280 281 281 282 283 284 284 285 285 286 286 287 287 288 288 288 288 288 288 288 288 288 288 289 289 289 289
250 250 250 249 249 248 248 248 248 248 248 249 249 250 250 251 251 251 251 251 252 252 253 254 255 255 256 257 258 259 260 261 262 263 263 264 265 265 266 266 267 268 268 269 269 270 271 271 272 272 273 274 274 275 276 277 278 279 280 280 281 282 283 283 284 285 285 285 286 286 287 287 287 287 287 287 287 287 287 288 288 288 288 288 288
249 249 249 248 248 248 247 248 248 248 248 248 248 249 249 250 251 251 251 252 252 253 253 254 254 255 255 256 257 258 259 260 260 261 262 263 264 265 265 266 267 267 268 269 269 270 271 271 272 273 273 274 275 276 277 277 278 279 279 280 281 282 282 283 283 284 284 285 285 285 285 285 285 286 286 286 286 286 286 287 287 287 287 287 287
249 248 248 247 247 247 247 247 247 247 247 248 248 248 249 249 250 251 251 252 252 253 253 254 255 255 256 256 257 257 258 258 259 260 261 261 262 263 264 265 266 267 267 268 269 270 270 271 272 273 274 274 275 276 276 277 278 278 279 280 280 281 282 282 283 283 284 284 284 284 284 285 285 285 285 285 285 285 285 286 286 286 287 287 287
249 248 247 247 246 246 246 246 246 247 247 247 248 249 249 249 250 251 251 252 252 253 254 254 255 255 256 257 257 258 258 258 259 259 260 261 261 262 263 264 265 266 267 267 268 269 270 271 271 272 273 274 274 275 276 277 277 278 279 279 280 281 281 282 282 283 283 283 283 283 283 284 284 284 284 284 284 284 285 285 286 286 287 287 288
250 249 248 247 247 246 246 246 246 246 247 247 248 248 249 249 250 250 251 252 252 253 253 254 255 255 256 257 257 258 258 258 259 259 260 261 261 262 263 264 264 265 266 267 268 269 270 270 271 272 273 273 274 275 276 276 277 278 279 279 280 280 281 281 282 282 282 282 282 282 282 283 283 283 284 284 284 285 285 286 287 287 287 288 288
252 250 249 248 248 247 247 246 246 246 246 247 247 248 248 249 249 250 251 251 252 253 253 254 255 255 256 256 257 258 258 259 259 260 260 261 262 262 263 264 265 266 267 267 268 269 270 271 272 272 273 274 275 275 276 277 278 279 279 280 280 280 280 280 281 281 281 281 281 282 282 283 283 284 284 285 285 286 286 287 287 288 288 288 289
253 252 251 250 249 248 248 248 247 247 246 247 247 248 248 249 249 250 250 251 252 252 253 254 255 255 256 256 257 258 259 259 260 260 261 262 262 263 264 265 265 266 267 268 269 270 270 271 272 273 274 275 275 276 277 278 278 278 279 279 279 279 280 280 280 281 281 282 282 283 283 284 284 285 285 286 286 287 287 288 288 288 289 289 290
253 252 251 250 250 249 249 248 248 248 247 247 247 248 248 249 249 250 251 251 252 253 253 254 255 255 256 257 258 258 259 260 260 261 262 263 263 264 265 266 266 267 268 269 270 270 271 272 273 274 275 276 276 277 277 278 278 278 279 279 280 280 281 281 282 282 283 283 283 284 284 285 285 286 286 287 287 288 288 289 289 289 290 290 290
253 252 251 251 250 250 249 249 249 248 248 248 248 248 248 249 249 250 251 251 252 253 254 254 255 256 256 257 258 259 259 260 261 262 263 264 264 265 266 267 267 268 269 270 271 272 272 273 274 275 275 276 277 277 278 278 279 279 280 280 281 282 282 283 283 283 284 284 285 285 285 286 286 287 287 288 288 289 289 290 290 290 290 290 290
253 253 252 251 251 250 250 249 249 249 249 248 248 248 248 249 249 250 250 251 252 253 254 255 256 256 257 258 259 259 260 261 262 263 264 265 265 266 267 268 269 269 270 271 272 272 273 274 275 275 276 277 277 278 279 279 280 280 281 281 282 282 283 283 284 284 285 285 285 286 287 287 288 288 288 289 289 290 290 290 291 291 291 291 292
255 254 254 253 252 252 251 251 250 250 250 250 249 249 249 250 250 250 251 252 252 253 254 255 256 257 258 259 260 260 261 262 263 264 265 266 267 267 268 269 270 270 271 272 272 273 274 275 275 276 277 278 278 279 280 280 281 281 282 282 283 283 284 284 284 285 285 286 286 287 288 288 288 289 289 289 290 290 291 291 292 292 293 293 293
255 255 255 254 254 254 254 253 253 253 252 252 251 251 251 251 251 252 252 253 253 254 255 256 257 258 259 260 261 262 262 263 264 265 265 266 267 268 269 270 270 271 272 272 273 274 275 275 276 277 278 279 279 280 281 281 282 282 283 283 283 284 284 284 285 285 286 286 287 287 288 288 289 289 290 290 291 291 292 293 293 294 294 294 294
256 256 256 256 256 256 256 256 255 254 254 253 253 253 252 253 253 253 253 254 255 255 256 257 258 258 259 260 261 262 263 264 264 265 266 267 268 268 269 270 271 271 272 273 274 275 276 276 277 278 279 279 280 281 281 282 282 283 283 283 283 284 284 285 285 286 286 287 287 287 288 288 289 290 291 291 292 292 293 293 294 294 294 294 294
258 257 258 258 258 258 258 257 257 256 255 255 254 254 254 253 254 254 254 255 256 256 257 258 259 259 260 261 261 262 263 264 265 265 266 267 268 269 269 270 271 272 273 274 275 276 276 277 278 279 280 280 281 282 282 282 283 283 283 283 284 284 285 285 286 286 286 287 287 288 289 289 290 291 291 292 292 293 293 293 293 294 294 294 294
259 259 259 259 259 259 258 258 257 257 257 256 256 255 255 255 254 255 255 255 256 257 257 258 259 260 261 262 262 263 264 265 265 266 267 268 269 269 270 271 272 273 274 275 276 276 277 278 279 279 280 281 281 282 282 282 283 283 284 284 285 285 286 286 286 287 287 288 288 289 290 290 291 291 291 292 292 292 293 293 293 294 294 294 294
260 260 260 260 260 260 259 258 257 257 256 256 256 256 256 256 255 255 256 256 257 257 258 259 260 261 262 263 263 264 265 266 267 267 268 269 270 271 272 272 273 274 275 276 276 277 277 278 279 279 280 280 281 281 282 282 283 283 284 285 285 286 286 287 287 288 288 289 289 290 290 291 291 291 291 292 292 293 293 293 293 293 294 294 293
261 261 261 261 260 260 260 259 259 258 257 256 256 256 257 257 257 257 257 258 258 259 259 260 261 262 263 264 264 265 266 267 268 269 270 270 271 272 273 274 274 275 276 276 277 277 277 278 278 279 279 280 280 281 282 282 283 284 285 285 286 287 288 288 289 289 289 290 290 291 291 291 292 292 292 292 293 293 293 294 294 294 294 294 294
262 262 262 262 262 261 261 261 260 259 258 258 257 257 257 258 258 259 259 260 260 260 261 261 262 263 263 264 265 266 267 267 268 269 270 271 271 272 273 274 274 275 275 276 276 277 277 278 278 279 279 280 280 281 282 283 284 285 286 286 287 288 288 289 289 290 290 290 291 291 292 292 293 293 293 293 294 294 294 295 294 294 294 294 294
263 263 263 263 263 263 263 262 261 261 260 259 259 258 258 258 259 259 260 261 261 262 262 263 263 264 264 265 266 266 267 268 268 269 270 271 271 272 272 273 274 274 275 276 276 277 278 279 279 280 280 281 282 282 283 284 285 285 286 286 287 287 288 289 290 290 291 291 292 292 293 293 293 294 294 295 295 295 295 295 295 295 295 295 295
263 263 263 263 263 263 263 263 263 262 262 261 260 259 259 259 259 259 260 260 261 262 263 263 264 265 266 266 267 268 268 269 270 270 271 272 272 272 273 273 274 275 276 277 277 278 279 280 280 281 281 282 283 283 284 284 285 285 285 286 287 287 288 289 289 290 290 291 291 292 292 293 294 294 295 295 296 296 296 296 296 296 296 296 296
262 262 262 263 263 263 263 263 263 263 262 261 261 261 260 260 260 260 260 261 261 262 263 263 264 265 266 267 267 268 269 270 270 271 271 272 272 273 273 274 275 275 276 277 278 278 279 280 280 281 281 282 282 283 283 284 284 285 285 286 287 287 288 288 289 289 290 290 291 292 292 293 294 295 295 295 296 296 296 296 296 296 297 297 296
261 261 262 262 262 262 262 262 262 262 262 261 261 261 260 261 261 261 261 261 262 262 263 263 264 265 266 266 267 268 269 269 270 271 272 272 273 274 275 275 275 276 276 277 277 278 278 279 279 280 280 281 282 282 283 284 284 285 286 286 286 287 287 288 289 289 290 291 291 292 293 294 294 295 295 295 295 296 296 297 297 297 297 297 297
260 260 260 260 260 261 261 261 261 262 262 261 261 261 261 261 261 262 262 262 263 263 264 264 265 266 266 267 268 269 269 270 271 272 273 273 274 275 275 275 276 276 277 277 277 278 278 279 279 280 280 281 282 283 283 284 284 285 285 286 286 287 288 289 289 290 291 291 292 293 294 295 295 295 295 295 296 296 297 297 297 297 297 297 297
258 258 259 259 259 260 260 260 261 261 261 261 261 261 262 262 262 263 263 264 264 265 265 266 266 267 267 268 269 269 270 271 272 272 273 274 274 275 275 276 276 277 277 278 278 279 279 280 280 281 281 282 283 283 284 284 285 285 286 287 288 288 289 290 290 291 292 293 294 295 295 296 296 296 296 296 296 297 297 297 297 297 297 297 297
258 258 258 259 259 259 260 260 260 260 261 261 262 262 262 263 263 264 264 265 265 266 266 267 268 268 269 269 270 271 271 272 273 273 274 274 275 275 276 277 277 278 278 279 279 280 280 281 281 282 282 283 284 284 285 286 286 287 288 289 289 290 290 291 292 293 294 294 295 296 296 296 296 296 296 296 297 297 297 297 297 297 297 297 297
258 258 258 259 259 259 260 260 260 261 261 261 262 263 263 264 265 265 265 266 267 267 268 269 269 270 270 271 272 272 273 273 274 274 275 275 276 276 277 277 278 278 279 279 280 280 281 281 282 283 284 284 285 286 287 287 288 289 289 290 290 291 292 292 293 294 295 295 296 296 296 296 296 296 296 297 297 297 297 297 297 297 297 297 297
258 258 258 259 259 259 260 261 261 262 262 262 263 264 265 266 266 267 268 268 269 269 270 270 271 271 272 272 273 273 274 274 274 275 275 276 276 276 277 277 278 278 279 280 280 281 282 283 284 284 285 285 286 287 288 288 289 290 290 291 291 292 292 293 294 294 295 295 295 296 296 296 296 296 297 297 297 297 297 297 298 297 297 297 297
259 259 259 259 260 260 261 261 262 263 263 264 265 266 266 267 268 269 269 270 270 271 271 272 272 272 273 273 273 274 274 274 274 275 275 276 276 277 277 278 279 280 280 281 282 282 283 284 284 285 285 286 287 288 288 289 290 290 291 291 292 292 293 293 294 294 295 295 295 296 296 296 296 297 297 297 297 297 298 298 298 297 297 298 298
260 259 260 260 260 261 261 262 263 264 264 265 266 267 267 268 268 269 269 270 270 271 271 272 272 272 272 273 273 274 274 275 276 276 277 277 278 278 279 280 281 281 282 282 283 283 284 284 285 286 286 287 288 289 289 290 291 291 292 292 293 293 294 294 295 295 296 296 296 296 297 297 297 297 297 297 297 298 298 298 298 298 298 298 298
260 260 260 260 261 261 262 262 263 264 265 266 266 267 267 268 268 269 269 270 270 271 271 272 272 273 274 274 275 276 277 277 278 278 279 279 280 280 281 281 282 282 283 283 284 284 285 286 286 287 288 289 290 290 291 291 292 292 293 293 294 294 295 296 296 296 297 297 297 297 297 297 298 298 297 297 298 298 298 298 298 298 299 299 300
261 261 261 262 262 262 262 263 264 264 265 266 267 267 268 269 270 270 271 272 272 273 274 274 275 276 276 277 277 278 278 279 279 279 280 280 281 281 282 282 283 283 284 285 285 286 287 288 288 289 290 291 291 291 292 292 293 294 294 294 295 296 297 297 298 298 298 298 298 298 298 298 298 298 298 298 298 298 298 298 299 299 300 300 301
263 263 263 263 263 264 264 265 265 266 266 267 268 269 270 271 271 272 273 274 274 275 275 276 276 276 277 277 278 278 278 279 279 280 280 281 282 282 283 284 284 285 286 286 287 288 289 290 290 291 291 292 292 293 294 294 295 295 296 296 297 297 298 298 298 298 298 298 298 298 298 298 298 298 298 297 297 297 298 299 300 300 301 301 302
263 263 263 263 264 265 265 266 266 267 268 268 269 270 270 271 272 272 273 273 274 274 275 275 276 276 276 277 278 278 279 279 280 280 281 282 283 284 284 285 286 286 287 288 289 289 290 291 291 292 292 293 294 295 296 296 296 296 297 297 297 297 297 298 298 298 297 297 297 298 298 298 298 297 297 297 297 298 299 301 301 301 302 302 302
263 263 263 264 264 265 265 266 267 267 268 268 269 269 270 271 271 272 272 273 273 274 275 275 276 276 277 277 278 278 279 280 281 281 282 283 284 285 286 286 287 288 289 289 290 291 291 292 292 293 294 294 295 296 296 296 296 296 296 296 296 296 297 297 297 297 297 297 297 298 298 298 298 298 297 298 299 300 301 302 302 302 302 303 303
263 263 263 264 264 265 266 267 267 268 268 268 269 269 270 271 271 271 272 273 274 275 275 276 276 277 278 278 279 279 280 281 282 283 284 285 286 286 287 288 289 290 290 291 291 291 292 292 293 294 294 295 295 296 296 296 296 296 296 296 296 297 297 298 297 297 297 298 298 299 299 299 298 298 299 300 301 302 303 303 303 303 303 304 303
263 264 264 265 265 266 266 267 267 267 268 269 270 270 271 271 271 272 274 274 275 275 276 277 278 278 279 280 280 281 282 283 284 285 285 286 287 287 288 289 290 290 291 291 292 292 293 293 294 295 296 296 296 296 296 296 297 297 297 297 297 298 298 298 298 298 298 299 299 299 300 300 299 300 301 302 303 304 304 303 303 304 304 304 304
265 265 266 266 266 266 266 266 267 268 269 270 270 270 271 272 273 274 274 275 276 277 278 279 279 280 280 281 282 283 284 284 285 285 286 287 287 288 289 290 290 291 291 292 293 294 294 295 296 296 297 297 297 297 297 297 297 297 297 297 297 298 299 299 299 299 299 299 300 300 301 301 301 302 303 303 304 304 304 304 304 304 305 305 305
267 267 266 266 266 266 267 268 269 269 270 270 271 272 273 274 274 275 275 276 277 278 279 280 280 281 282 283 284 284 285 285 286 287 287 288 289 289 290 291 291 292 293 294 295 295 296 296 297 297 297 297 297 297 298 298 297 297 297 298 298 299 299 299 299 299 300 300 301 301 302 302 303 303 303 303 304 305 304 304 304 305 306 306 306
267 267 267 267 268 269 269 270 270 270 271 272 273 274 274 274 275 276 277 278 279 279 280 281 282 282 283 284 285 285 286 287 288 288 289 290 290 290 291 291 292 293 294 295 296 296 296 296 297 297 297 297 297 298 298 297 297 297 299 299 299 299 300 299 299 300 301 301 302 303 303 304 303 303 303 304 305 305 305 305 305 306 307 308 308
268 269 270 270 271 271 271 271 271 272 273 274 274 274 275 276 276 277 278 279 279 280 281 282 283 284 284 285 286 287 288 288 289 290 290 290 291 291 292 292 293 294 295 295 296 296 296 296 297 297 297 297 298 297 297 297 297 299 300 299 299 300 300 300 300 301 302 302 303 304 304 304 303 303 303 305 305 305 306 306 307 308 309 310 310
272 272 272 272 272 272 272 273 274 274 275 275 276 276 277 278 279 279 280 280 281 281 282 283 284 285 285 286 287 288 289 289 290 290 290 291 291 292 293 293 294 295 295 296 296 296 296 296 297 297 297 298 297 297 297 297 298 299 299 299 300 300 300 301 302 303 303 304 305 305 304 303 303 303 305 306 306 306 307 308 309 311 312 311 311
272 272 273 273 274 274 275 275 276 276 276 277 277 278 279 279 280 280 280 281 282 282 283 284 284 285 286 287 288 288 289 289 290 290 291 292 292 293 294 295 295 295 296 296 297 297 297 297 297 297 297 297 297 297 297 298 299 299 299 299 300 300 301 302 303 304 305 305 305 305 304 304 304 305 305 306 306 307 309 311 312 313 312 312 312
273 273 274 275 275 276 276 276 276 277 277 278 278 279 279 279 280 280 281 282 282 283 284 285 285 286 287 287 288 289 289 290 291 291 292 293 294 294 295 295 296 296 297 297 297 297 297 297 297 297 297 297 297 298 298 299 299 299 300 300 300 300 302 304 305 305 306 305 305 305 305 305 305 306 306 307 308 310 312 313 314 314 313 314 316
274 274 275 275 275 276 276 276 277 277 278 278 278 279 279 280 280 281 282 283 284 284 285 286 286 287 287 288 288 289 290 291 291 292 293 294 294 295 295 296 296 297 297 297 297 296 296 297 297 298 298 297 298 299 299 299 299 300 300 300 300 301 304 305 306 306 305 305 305 305 306 306 306 307 308 309 311 313 314 314 315 315 316 319 322
274 274 274 275 275 276 276 276 277 277 278 278 279 280 280 281 282 283 284 284 285 285 286 286 287 287 288 288 289 290 290 291 292 293 294 294 294 295 295 296 296 296 297 296 296 296 296 297 298 298 298 298 299 300 299 299 300 301 300 300 301 304 305 306 305 305 305 305 306 306 307 307 308 309 311 312 313 314 315 315 316 318 321 324 327
274 274 274 275 275 276 277 277 278 278 279 279 280 281 282 283 283 284 284 285 285 285 286 286 287 288 289 289 290 290 291 292 293 293 294 294 294 295 295 295 296 296 296 296 296 297 298 298 298 298 298 299 299 299 299 300 301 301 300 301 303 305 305 305 305 306 306 306 307 308 308 309 311 312 313 315 315 314 315 318 321 324 327 329 330
274 275 275 276 277 277 278 278 279 279 280 281 281 282 283 283 284 284 284 285 285 286 287 287 288 289 289 290 291 291 292 293 293 293 294 294 294 294 295 295 296 295 295 296 297 298 299 299 298 298 298 299 299 299 299 301 301 301 302 303 304 304 305 306 307 307 307 308 309 310 310 311 313 314 315 315 315 316 320 324 328 330 332 333 334